Burnet, TX

1:06 PM CDT on July 28, 2017 (GMT -0500)
Burnet Municipal-Craddock

Weather History for KBMQ - April, 2013

Change the Weather History Date:

Thursday, April 18, 2013

  Actual Average Record
Temperature  
Mean Temperature 60 °F -  
Max Temperature 73 °F 75 °F 97 °F (2006)
Min Temperature 48 °F 55 °F 39 °F (1999)
Degree Days  
Heating Degree Days 4    
Growing Degree Days 10 (Base 50)    
Moisture  
Dew Point 50 °F    
Average Humidity 71    
Maximum Humidity 90    
Minimum Humidity 38    
Precipitation  
Precipitation 0.12 in - - ()
Sea Level Pressure  
Sea Level Pressure 29.85 in    
Wind  
Wind Speed 15 mph (NNW)    
Max Wind Speed 24 mph    
Max Gust Speed 32 mph    
Visibility 8 miles    
Events Rain , Thunderstorm    
Averages and records for this station are not official NWS values.
T = Trace of Precipitation, MM = Missing Value Source: NWS Daily Summary

Daily Weather History Graph

Daily Weather History Graph

Search for Another Location

Airport or City:

Trip Planner

Search our weather history database for the weather conditions in past years. The results will help you decide how hot, cold, wet, or windy it might be!

Date:

Astronomy

Apr. 18, 2013 Rise Set
Actual Time 7:01 AM CDT 8:03 PM CDT
Civil Twilight 6:36 AM CDT 8:28 PM CDT
Nautical Twilight 6:07 AM CDT 8:57 PM CDT
Astronomical Twilight 5:37 AM CDT 9:27 PM CDT
Moon 1:19 PM CDT (4/18) 2:13 AM CDT (4/18)
Length of Visible Light 13h 51m
Length of Day
13h 01m
First Quarter, 52% of the Moon is Illuminated
Apr 18
First Quarter
Apr 25
Full
May 2
Last Quarter
May 9
New
May 17
First Quarter

Hourly Weather History & Observations

Time (CDT) Temp. Dew Point Humidity Pressure Visibility Wind Dir Wind Speed Gust Speed Precip Events Conditions
12:51 AM 73.4 °F 69.8 °F 88% 29.73 in 5.0 mi SSE 11.5 mph 23.0 mph N/A   Overcast
12:53 AM 73.0 °F 70.0 °F 90% 29.68 in 5.0 mi SSE 15.0 mph 24.2 mph N/A   Overcast
1:03 AM 73.9 °F 69.1 °F 85% 29.72 in 5.0 mi SSE 10.4 mph 23.0 mph N/A   Haze
1:10 AM 73.9 °F 69.1 °F 85% 29.72 in 5.0 mi SSE 13.8 mph 24.2 mph N/A   Haze
1:53 AM 73.9 °F 69.1 °F 85% 29.65 in 5.0 mi South 19.6 mph 28.8 mph N/A   Haze
2:22 AM 73.9 °F 68.0 °F 82% 29.69 in 6.0 mi South 24.2 mph 32.2 mph N/A   Haze
2:53 AM 73.9 °F 68.0 °F 82% 29.61 in 6.0 mi South 18.4 mph 27.6 mph N/A   Haze
3:53 AM 73.9 °F 66.9 °F 79% 29.61 in 8.0 mi South 16.1 mph 26.5 mph N/A   Overcast
4:53 AM 73.0 °F 66.9 °F 81% 29.60 in 8.0 mi South 17.3 mph 24.2 mph N/A   Overcast
5:53 AM 73.9 °F 66.0 °F 76% 29.68 in 8.0 mi West 11.5 mph 25.3 mph N/A   Overcast
6:13 AM 66.9 °F 57.9 °F 73% 29.76 in 6.0 mi NW 19.6 mph 28.8 mph 0.00 in Rain Light Rain
6:19 AM 64.9 °F 59.0 °F 81% 29.78 in 2.5 mi NW 16.1 mph 27.6 mph 0.07 in Rain , Thunderstorm Heavy Rain
6:34 AM 61.0 °F 57.9 °F 90% 29.78 in 7.0 mi NNW 19.6 mph 25.3 mph 0.12 in Rain Light Rain
6:53 AM 60.1 °F 57.0 °F 90% 29.78 in 8.0 mi NW 10.4 mph - 0.12 in Rain Light Rain
7:11 AM 57.0 °F 54.0 °F 89% 29.82 in 10.0 mi NNW 16.1 mph 26.5 mph 0.00 in Rain Light Rain
7:26 AM 55.9 °F 53.1 °F 90% 29.84 in 10.0 mi NNW 13.8 mph 27.6 mph 0.00 in Rain Light Rain
7:32 AM 55.9 °F 53.1 °F 90% 29.84 in 10.0 mi NNW 11.5 mph 21.9 mph 0.00 in Rain Light Rain
7:53 AM 53.1 °F 50.0 °F 89% 29.83 in 10.0 mi NNW 16.1 mph - 0.00 in   Overcast
8:53 AM 50.0 °F 45.0 °F 83% 29.88 in 10.0 mi NNW 16.1 mph 27.6 mph N/A   Overcast
8:59 AM 50.0 °F 45.0 °F 83% 29.92 in 10.0 mi NNW 19.6 mph 26.5 mph N/A Thunderstorm Overcast
9:20 AM 50.0 °F 45.0 °F 83% 29.92 in 10.0 mi NNW 11.5 mph 20.7 mph 0.00 in   Overcast
9:53 AM 48.9 °F 44.1 °F 83% 29.91 in 10.0 mi NNW 16.1 mph 21.9 mph 0.00 in Rain Light Rain
10:43 AM 48.9 °F 42.1 °F 77% 29.95 in 10.0 mi NNW 16.1 mph 20.7 mph 0.00 in   Overcast
10:53 AM 48.9 °F 42.1 °F 77% 29.94 in 10.0 mi NNW 12.7 mph 23.0 mph 0.00 in   Overcast
11:53 AM 53.1 °F 42.1 °F 66% 29.94 in 10.0 mi North 16.1 mph 25.3 mph N/A   Overcast
12:53 PM 54.0 °F 39.9 °F 59% 29.95 in 10.0 mi NNW 13.8 mph 23.0 mph N/A   Overcast
1:53 PM 57.9 °F 39.9 °F 51% 29.93 in 10.0 mi NNW 15.0 mph 24.2 mph N/A   Scattered Clouds
2:53 PM 60.1 °F 39.9 °F 47% 29.93 in 10.0 mi North 10.4 mph 24.2 mph N/A   Clear
3:53 PM 62.1 °F 37.9 °F 41% 29.92 in 10.0 mi NNW 19.6 mph 25.3 mph N/A   Partly Cloudy
4:53 PM 62.1 °F 37.9 °F 41% 29.92 in 10.0 mi North 15.0 mph 20.7 mph N/A   Clear
5:53 PM 61.0 °F 37.0 °F 41% 29.94 in 10.0 mi North 10.4 mph 21.9 mph N/A   Clear
6:53 PM 61.0 °F 35.1 °F 38% 29.98 in 10.0 mi North 13.8 mph 23.0 mph N/A   Clear
7:53 PM 57.9 °F 34.0 °F 41% 30.02 in 10.0 mi North 12.7 mph 19.6 mph N/A   Clear
8:53 PM 55.9 °F 34.0 °F 44% 30.07 in 10.0 mi North 11.5 mph - N/A   Clear
9:53 PM 54.0 °F 33.1 °F 45% 30.11 in 10.0 mi North 8.1 mph - N/A   Clear
10:53 PM 52.0 °F 34.0 °F 50% 30.12 in 10.0 mi North 10.4 mph - N/A   Clear
11:53 PM 50.0 °F 34.0 °F 54% 30.13 in 10.0 mi NNE 10.4 mph - N/A   Clear